Tracking 27420 objects as of 10-Jun-2023
HD Live streaming from Space Station
objects crossing your sky now

ATLAS 5 CENTAUR DEB

Track ATLAS 5 CENTAUR DEB now!


NORAD ID: 43999
Int'l Code: 2014-055BE
Perigee: 8,526.3 km
Apogee: 34,723.8 km
Inclination: 20.8 °
Period: 777.0 minutes
Semi major axis: 27996 km
RCS: Unknown
Launch date: September 17, 2014
Source: United States (US)
Launch site: AIR FORCE EASTERN TEST RANGE (AFETR)

Note: This is SATELLITE DEBRIS
Your satellite tracking list
Your tracking list is empty




NASA's NSSDC Master Catalog

Two Line Element Set (TLE):
1 43999U 14055BE  23159.34844293 -.00000120  00000-0  00000-0 0  9990
2 43999  20.8168 256.6645 4678782 329.1893  10.3012  1.85334902 32223
Source of the keplerian elements: AFSPC